Tucson Davis Monthan, AZ

10:49 AM MST on July 25, 2017 (GMT -0700)
Davis-Monthan Air Force Base

Weather History for KDMA - January, 2014

Change the Weather History Date:

Saturday, January 11, 2014

  Actual Average Record
Temperature  
Mean Temperature 54 °F -  
Max Temperature 68 °F 65 °F 82 °F (1990)
Min Temperature 39 °F 40 °F 21 °F (1962)
Degree Days  
Heating Degree Days 12    
Growing Degree Days 4 (Base 50)    
Moisture  
Dew Point 25 °F    
Average Humidity 37    
Maximum Humidity 53    
Minimum Humidity 19    
Precipitation  
Precipitation 0.00 in - - ()
Sea Level Pressure  
Sea Level Pressure 30.09 in    
Wind  
Wind Speed 5 mph (SE)    
Max Wind Speed 12 mph    
Max Gust Speed -    
Visibility 10 miles    
Events      
Averages and records for this station are not official NWS values.
T = Trace of Precipitation, MM = Missing Value Source: NWS Daily Summary

Daily Weather History Graph

Daily Weather History Graph

Search for Another Location

Airport or City:

Trip Planner

Search our weather history database for the weather conditions in past years. The results will help you decide how hot, cold, wet, or windy it might be!

Date:

Astronomy

Jan. 11, 2014 Rise Set
Actual Time 7:25 AM MST 5:38 PM MST
Civil Twilight 6:58 AM MST 6:04 PM MST
Nautical Twilight 6:28 AM MST 6:34 PM MST
Astronomical Twilight 5:58 AM MST 7:04 PM MST
Moon 2:22 PM MST (1/11) 3:36 AM MST (1/11)
Length of Visible Light 11h 06m
Length of Day
10h 12m
Waxing Gibbous, 83% of the Moon is Illuminated
Jan 11
Waxing Gibbous
Jan 15
Full
Jan 23
Last Quarter
Jan 30
New
Feb 6
First Quarter

Hourly Weather History & Observations

Time (MST) Temp. Windchill Dew Point Humidity Pressure Visibility Wind Dir Wind Speed Gust Speed Precip Events Conditions
12:58 AM 42.1 °F 40.2 °F 23.9 °F 49% 30.13 in 10.0 mi ESE 3.5 mph - N/A   Clear
1:58 AM 42.3 °F 36.8 °F 23.0 °F 47% 30.14 in 10.0 mi SE 9.2 mph - N/A   Clear
2:58 AM 39.7 °F 35.6 °F 23.2 °F 52% 30.14 in 10.0 mi SSE 5.8 mph - N/A   Clear
3:58 AM 39.0 °F 34.0 °F 23.0 °F 53% 30.13 in 10.0 mi SE 6.9 mph - N/A   Clear
4:58 AM 41.0 °F 34.3 °F 22.5 °F 48% 30.12 in 10.0 mi SE 11.5 mph - N/A   Clear
5:58 AM 39.0 °F 33.4 °F 22.6 °F 52% 30.14 in 10.0 mi SSE 8.1 mph - N/A   Clear
6:58 AM 41.9 °F 35.4 °F 22.6 °F 46% 30.15 in 10.0 mi SSE 11.5 mph - N/A   Clear
7:58 AM 42.8 °F 37.5 °F 22.6 °F 45% 30.17 in 10.0 mi SE 9.2 mph - N/A   Clear
8:58 AM 49.5 °F - 23.2 °F 36% 30.16 in 10.0 mi SE 8.1 mph - N/A   Clear
9:58 AM 54.9 °F - 24.3 °F 31% 30.17 in 10.0 mi South 3.5 mph - N/A   Clear
10:58 AM 60.4 °F - 23.9 °F 25% 30.16 in 10.0 mi WNW 4.6 mph - N/A   Clear
11:58 AM 60.1 °F - 25.7 °F 27% 30.13 in 10.0 mi NW 2.3 mph - N/A   Clear
12:58 PM 63.1 °F - 25.9 °F 24% 30.10 in 10.0 mi Calm Calm - N/A   Clear
1:58 PM 65.5 °F - 25.9 °F 22% 30.06 in 10.0 mi Calm Calm - N/A   Clear
2:58 PM 67.1 °F - 25.3 °F 21% 30.04 in 10.0 mi NNW 2.3 mph - N/A   Clear
3:58 PM 68.0 °F - 25.9 °F 21% 30.04 in 10.0 mi Calm Calm - N/A   Clear
4:58 PM 67.3 °F - 22.8 °F 19% 30.02 in 10.0 mi NW 2.3 mph - N/A   Clear
5:58 PM 64.4 °F - 25.2 °F 23% 30.03 in 10.0 mi NW 2.3 mph - N/A   Clear
6:58 PM 57.0 °F - 27.0 °F 32% 30.05 in 10.0 mi NNW 1.2 mph - N/A   Clear
7:58 PM 54.0 °F - 28.2 °F 37% 30.05 in 10.0 mi Calm Calm - N/A   Clear
8:58 PM 49.3 °F - 29.3 °F 46% 30.05 in 10.0 mi Calm Calm - N/A   Clear
9:58 PM 46.0 °F 42.5 °F 29.3 °F 52% 30.04 in 10.0 mi SE 6.9 mph - N/A   Clear
10:58 PM 46.2 °F 41.2 °F 26.2 °F 46% 30.04 in 10.0 mi SE 10.4 mph - N/A   Clear
11:58 PM 45.9 °F 41.2 °F 23.9 °F 42% 30.01 in 10.0 mi SE 9.2 mph - N/A   Clear